Regional Weather Roundup
Issued by NWS Upton, NY

Current Version | Previous Version | Graphics & Text | Print | Product List | Glossary Off
Versions: 1 2 3 4 5 6 7 8 9 10 11 12 13 14 15 16 17 18 19 20 21 22 23 24 25 26 27 28 29 30 31 32 33 34 35 36 37 38 39 40 41 42 43 44 45 46 47 48 49

006
ASUS41 KOKX 132004
RWROKX

REGIONAL WEATHER ROUNDUP
NATIONAL WEATHER SERVICE NEW YORK NY
300 PM EST SAT FEB 13 2016

NOTE: "FAIR" INDICATES FEW OR NO CLOUDS BELOW 12,000 FEET WITH NO
SIGNIFICANT WEATHER AND/OR OBSTRUCTIONS TO VISIBILITY.

NYZ071-072-176-178-NJZ106-104-132100-
NEW YORK CITY METRO AREA


CITY           SKY/WX    TMP DP  RH WIND       PRES   REMARKS
CENTRAL PARK   MOSUNNY   17 -13  25 W16G32    30.12R WCI   2
LAGUARDIA APRT MOSUNNY   19  -2  39 NW29G41   30.10R WCI   0
KENNEDY INTL   MOSUNNY   18 -12  26 NW31G41   30.11R WCI  -2
NEWARK/LIBERTY MOSUNNY   19 -15  21 W26G35    30.13R WCI   1
BRNX BOT. GARD   N/A     16  -9  32 NW18      30.10S WCI  -1
TETERBORO      PTSUNNY   17 -12  27 NW18G36   30.12R WCI   1
$$

NYZ177-179-078>081-132100-
LONG ISLAND NEW YORK

CITY           SKY/WX    TMP DP  RH WIND       PRES   REMARKS
FARMINGDALE    MOSUNNY   18  -8  31 NW16G29   30.07R WCI   3
ISLIP          MOSUNNY   16  -7  35 NW23G40   30.04R WCI  -2
SHIRLEY        SUNNY     17  -6  35 NW23G35   30.04R WCI  -1
RIVERHEAD        N/A     19 -17  19 NW10      30.00R WCI   8
WESTHAMPTON    SUNNY     16  -8  34 W30G43    30.01R WCI  -4
EAST HAMPTON   MOSUNNY   18  -9  29 W29G40    29.96R WCI  -2
MONTAUK POINT    N/A     20  -1  40 W17G26    29.95R WCI   5
$$

NYZ052-065-067-132100-
HUDSON VALLEY

CITY           SKY/WX    TMP DP  RH WIND       PRES   REMARKS
WHITE PLAINS   MOSUNNY   13 -12  32 W29G41    30.05R WCI  -8
NEWBURGH       MOSUNNY    9 -13  37 NW24G38   30.10R WCI -12
MONTGOMERY     SUNNY     10 -15  31 NW24G37   30.12R WCI -10
POUGHKEEPSIE   MOSUNNY   13 -15  27 W24G33    30.11R WCI  -7
ALBANY         PTSUNNY    4 -16  39 W17G38    30.15R WCI -16
$$

NJZ001-105-106-008-010-013-015-019>022-104-132100-
NEW JERSEY

CITY           SKY/WX    TMP DP  RH WIND       PRES   REMARKS
NEWARK/LIBERTY MOSUNNY   19 -15  21 W26G35    30.13R WCI   1
TETERBORO      PTSUNNY   17 -12  27 NW18G36   30.12R WCI   1
CALDWELL       MOSUNNY   14 -17  24 W23G36    30.13R WCI  -5
MORRISTOWN     PTSUNNY   16 -13  27 MISG      30.13R
SOMERVILLE     PTSUNNY   18 -11  27 NW18G33   30.13R WCI   2
SUSSEX         CLOUDY     9 -11  40 NW9G26    30.13R WCI  -4
ANDOVER          N/A     11 -16  28 NW15G33   30.12R WCI  -5
TRENTON        PTSUNNY   18  -9  29 NW18G29   30.15R WCI   2
MILLVILLE      PTSUNNY   22  -5  30 NW24G36   30.19R WCI   5
ATLANTIC CITY  PTSUNNY   22  -6  29 NW28G43   30.14R WCI   4
WRIGHTSTOWN    MOSUNNY   18 -11  27 W21G35    30.11R WCI   1
TOMS RIVER     CLOUDY    19  -8  30 NW24G33   30.12R WCI   2
BELMAR         CLOUDY    21  -6  30 W26G33    30.09R WCI   4
$$

PAZ047>061-062-071-132100-
EASTERN PENNSYLVANIA

CITY           SKY/WX    TMP DP  RH WIND       PRES   REMARKS
PHILADELPHIA   PTSUNNY   19  -7  31 NW22G36   30.21R WCI   2
ALLENTOWN      CLOUDY    15  -5  40 NW16G31   30.16R WCI  -1
SCRANTON       CLOUDY     6 -12  43 W15G29    30.14R WCI -12
$$

CTZ002-004>006-009-010-012-RIZ004-006-007-MAZ004-011-015-132100-
SOUTHERN NEW ENGLAND
 IN CT

CITY           SKY/WX    TMP DP  RH WIND       PRES   REMARKS
BRADLEY INTL   MOSUNNY   11  -9  40 W28G35    30.02R WCI -10
HARTFORD       MOSUNNY   14  -9  35 NW18G30   30.03R WCI  -3
DANBURY        SUNNY     12 -15  28 W15G32    30.05R WCI  -4
WTRBRY/OXFORD  PTSUNNY   12 -15  29 NW17G30   29.97R WCI  -5
BRIDGEPORT     PTSUNNY   17  -6  35 W26G38    30.04R WCI  -2
MERIDEN        CLOUDY    15  -3  44 NW16G29   30.01R WCI  -1
NEW HAVEN      MOSUNNY   17  -6  35 W20G32    30.01R WCI   1
CHESTER        FAIR      16  -4  41 W13G31    29.95R WCI   2
GROTON         PTSUNNY   17   2  51 NW26G32   29.96R WCI  -2
WILLIMANTIC    SUNNY     15  -9  33 NW16G36   29.98R WCI  -1

 IN RI

CITY           SKY/WX    TMP DP  RH WIND       PRES   REMARKS
PROVIDENCE     PTSUNNY   17 -10  29 NW28G36   29.94R WCI  -2
BLOCK ISLAND   CLOUDY    19  -2  38 NW17G26   29.89R WCI   4
WESTERLY       PTSUNNY   19  -4  36 N22G30    29.94R WCI   2

 IN MA

CITY           SKY/WX    TMP DP  RH WIND       PRES   REMARKS
BOSTON         MOSUNNY   19  -9  28 W23G31    29.88R WCI   2
WORCESTER      SUNNY      8 -13  37 W23G38    29.85R WCI -13
WESTFIELD      SUNNY      7 -13  39 NW24G39   30.04R WCI -14
PROVINCETOWN   MOSUNNY   23   5  46 W26G32    29.83R WCI   6
NANTUCKET      PTSUNNY   25   3  38 W17G29    29.84R WCI  12
$$

ANZ330-335-338-340-345-350-353-355-132100-
COASTAL MARINE OBSERVATIONS


STATION/POSITION TIME  SKY/WX   TEMP    WIND        PRES    VSBY  WAVE
                                AIR SEA DIR/SP/G                  HT/PER
                 (UTC)          (F)     (DEG/KT/KT) (MB)    (MI)  (FT/S)
NY HARB ENTRANCE 1850            21 43  300/ 29/ 37 1017.2          6/ 5
4S FIRE IS       NOT AVBL
20S FIRE ISLAND  1850            21 41  300/ 31/ 41 1016.0          7/ 6
GREAT SOUTH BAY  NOT AVBL
23SW MTP         1950            21 44  290/ 29/ 39 1014.1          8/ 7
HUDSON CANYON    1850            25 48              1014.9         12/ 8
KINGS POINT      1900            17 35  340/ 26/ 31 1017.9
EXECUTION ROCKS  NOT AVBL
CENTRAL LI SOUND 1900            20     280/ 25/ 31   N/A           5/ 6
EASTERN LI SOUND 1900            22 40  300/ 21/ 33   N/A
ROBBINS REEF     1900            16     320/ 27/ 37 1017.7
$$


>>>>>>>>>>>>>>>>>>>>>>>>>>>> KEY <<<<<<<<<<<<<<<<<<<<<<<<<<<
>                                                          <
>     SKY/WX - SKY CONDITION/PRESENT WEATHER               <
>     TMP    - TEMPERATURE IN FAHRENHEIT                   <
>     DP     - DEWPOINT IN FAHRENHEIT                      <
>     RH     - RELATIVE HUMIDITY IN PERCENT                <
>     WIND   - DIRECTION AND SPEED IN MPH                  <
>     PRES   - MEAN SEA LEVEL PRESSURE IN INCHES OF HG     <
>     WCI    - WIND CHILL INDEX                            <
>     VSB    - VISIBILITY IN MILES                         <
>     HX     - HEAT INDEX                                  <
>     TC     - TEMPERATURE IN CELSIUS                      <
>     VRB    - VARIABLE WIND DIRECTION                     <
>                                                          <
>>>>>>>>>>>>>>>>>>>>>>>>>>>> KEY <<<<<<<<<<<<<<<<<<<<<<<<<<<






USA.gov is the U.S. government's official web portal to all federal, state and local government web resources and services.